Time,B instrument,Bx,By,Bz,sigma B,Ion instrument,Status,Tp_par,Tp_perp,carrot,r_sun,clat,clong,earth_he_angle,n_p,vp_x,vp_y,vp_z,vth_p_par,vth_p_perp
1980-03-24 00:43:44,-1,nan,nan,nan,nan,1,3,nan,nan,1693,0.91606563,-2.8674917,207.45923,275.7522,nan,323.617,-13.6814,-10.1638,nan,nan
1980-03-24 00:46:26,1,-3.93333,4.13333,-0.833333,0.270801,1,1,60111.3,41953.6,1693,0.91605574,-2.8676853,207.4314,275.75171,5.26484,331.433,-6.72806,9.14292,31.5019,26.3174
1980-03-24 00:49:08,1,-0.966667,5.5,4.03333,0.253859,1,1,41182.8,51568.6,1693,0.91604578,-2.8678799,207.40747,275.75122,5.67222,321.985,-7.29656,-6.30252,26.0745,29.1777
1980-03-24 00:49:10,1,-0.966667,5.5,4.03333,0.253859,1,1,53582.7,39534.0,1693,0.91604578,-2.8678799,207.40747,275.75122,5.34687,337.45,14.7115,41.2567,29.742,25.5472
1980-03-24 00:51:52,1,-1.4,6.06667,2.56667,0.194365,1,1,56478.2,35035.3,1693,0.91603917,-2.8680086,207.38379,275.75098,5.61383,338.713,16.2315,30.8131,30.535,24.0498
1980-03-24 00:54:34,1,-1.85,3.425,4.625,2.86553,1,1,36875.6,39809.9,1693,0.91602927,-2.8682032,207.3562,275.75073,4.87531,340.343,21.1179,24.4431,24.6733,25.6362
1980-03-24 00:57:16,1,-1.325,2.775,6.8,0.607248,1,1,48145.5,40502.1,1693,0.91601932,-2.8683968,207.33228,275.75024,5.42524,334.599,-11.1363,64.2282,28.1926,25.8581
1980-03-24 00:59:58,1,-1.85,4.0,6.0,0.342783,1,1,57556.7,39478.3,1693,0.9160127,-2.8685265,207.30859,275.75,5.65529,333.478,-7.11164,62.3717,30.8252,25.5292
1980-03-24 01:02:40,1,-1.76667,5.43333,4.46667,0.391578,1,1,71292.9,35151.1,1693,0.91600275,-2.8687201,207.28101,275.74976,5.58902,339.87,10.5009,42.4871,34.3069,24.0895
1980-03-24 01:05:22,1,-2.16667,5.56667,4.06667,0.469042,1,1,50896.9,40068.0,1693,0.91599286,-2.8689146,207.25708,275.74927,5.6757,332.984,12.3164,40.0983,28.987,25.7191
1980-03-24 01:08:04,1,-1.7,5.6,4.6,0.57735,1,1,61507.0,36943.3,1693,0.9159829,-2.8691082,207.23315,275.74878,5.71489,336.026,10.6645,42.1077,31.8655,24.696
1980-03-24 01:10:46,1,0.333333,6.53333,2.23333,0.305505,1,1,58646.3,39671.3,1693,0.91597629,-2.8692379,207.20557,275.74854,5.51192,350.53,20.8099,30.082,31.1156,25.5915
1980-03-24 01:13:28,1,1.2,5.9,-1.4,0.282843,1,1,61175.1,40254.2,1693,0.91596633,-2.8694315,207.18188,275.74829,6.28243,360.577,10.5917,2.28598,31.7794,25.7789
1980-03-24 01:16:10,1,2.825,5.55,0.95,1.12777,1,1,78173.9,44756.6,1693,0.91595638,-2.869626,207.15796,275.7478,6.1075,377.93,7.30091,14.0226,35.9243,27.1823
1980-03-24 01:18:52,1,-0.35,6.525,1.575,0.355317,1,1,61833.0,37618.5,1693,0.91594976,-2.8697557,207.13037,275.74756,6.17138,346.319,17.219,22.4066,31.9498,24.9206
1980-03-24 01:21:34,1,-0.475,6.025,2.6,0.49371,1,1,46866.4,34210.7,1693,0.91593981,-2.8699493,207.10669,275.74731,5.69435,341.375,19.8467,34.2338,27.8156,23.7651
1980-03-24 01:24:16,1,-0.2,6.13333,-0.2,0.149071,1,1,69613.0,39849.0,1693,0.91592991,-2.8701439,207.08276,275.74683,5.75138,351.045,19.7847,10.702,33.9003,25.6488
1980-03-24 01:26:58,1,-0.433333,6.3,-0.0666667,0.38873,1,1,50378.6,40433.2,1693,0.91592324,-2.8702726,207.05518,275.74658,5.24152,348.533,22.6228,7.22169,28.8391,25.8361
1980-03-24 01:29:40,1,-0.266667,5.23333,-2.06667,0.571548,1,1,65527.8,36116.4,1693,0.91591334,-2.8704672,207.03149,275.74634,5.98094,343.562,15.7948,3.79802,32.8905,24.418
1980-03-24 01:32:22,1,-0.966667,6.23333,1.7,0.557773,1,1,46264.7,37927.6,1693,0.91590339,-2.8706608,207.00757,275.74585,5.94253,342.925,21.723,26.0945,27.6365,25.0228
1980-03-24 01:35:04,1,0.075,6.175,2.15,0.79136,1,1,61819.8,32808.8,1693,0.91589344,-2.8708553,206.97974,275.74536,5.56574,350.58,17.4336,34.8806,31.9464,23.273
1980-03-24 01:37:46,1,-0.133333,6.16667,3.53333,0.270801,1,1,46199.4,37525.3,1693,0.91588682,-2.8709841,206.95605,275.74512,5.52733,352.716,16.9348,38.4329,27.617,24.8897
1980-03-24 01:40:28,1,-0.6,6.4,1.66667,0.426875,1,1,59228.3,27110.3,1693,0.91587687,-2.8711786,206.93237,275.74487,4.9416,347.282,18.4993,23.3187,31.2696,21.1556
1980-03-24 01:43:10,1,-2.66667,5.46667,3.33333,0.432049,1,1,39692.8,52120.8,1693,0.91586691,-2.8713722,206.90454,275.74438,6.16024,326.764,7.64398,49.272,25.5984,29.3335
1980-03-24 01:45:52,1,-3.075,5.6,-0.275,0.915833,1,1,50275.1,47861.0,1693,0.9158603,-2.8715019,206.88086,275.74414,6.87863,326.94,14.2816,10.5506,28.8094,28.1092
1980-03-24 01:48:34,1,-2.96667,5.76667,-0.133333,0.52915,1,1,52451.7,40359.1,1693,0.9158504,-2.8716965,206.85718,275.7439,6.15514,325.485,14.1049,23.6796,29.4264,25.8124
1980-03-24 01:51:16,1,-3.73333,4.96667,-1.36667,0.424264,1,1,52704.1,46583.9,1693,0.91584045,-2.8718901,206.82935,275.74341,7.16516,324.059,6.37581,2.45672,29.4971,27.7317
1980-03-24 01:53:58,1,-4.36667,3.8,-2.46667,0.397213,1,1,39051.3,41298.4,1693,0.91583383,-2.8720198,206.80566,275.74316,6.18631,321.428,5.1939,-1.09785,25.3908,26.1111
1980-03-24 01:56:40,1,-3.6,3.23333,-3.2,0.54365,1,1,42166.7,45524.9,1693,0.91582388,-2.8722134,206.78198,275.74292,6.36878,326.707,-2.53015,-10.5267,26.3841,27.4146
1980-03-24 01:59:22,1,-2.175,1.025,-4.375,0.447912,1,1,53638.1,40650.4,1693,0.91581392,-2.8724079,206.75415,275.74243,6.30098,337.445,-17.8512,-18.4776,29.7574,25.9054
1980-03-24 02:02:04,1,-2.13333,2.76667,-4.06667,0.305505,1,1,55137.1,41150.6,1693,0.91580397,-2.8726015,206.73022,275.74194,6.3494,338.072,-4.5522,-14.3291,30.1703,26.0643
1980-03-24 02:04:46,1,-0.566667,0.8,-5.2,0.169967,1,1,54143.8,40851.5,1693,0.91579735,-2.8727312,206.70654,275.7417,7.15571,345.433,-18.0326,-18.8556,29.8973,25.9694
1980-03-24 02:07:28,1,0.333333,-2.26667,-5.06667,0.282843,1,1,44077.1,33810.8,1693,0.9157874,-2.8729258,206.67896,275.74146,6.04592,348.498,-37.0181,-17.3332,26.9752,23.6258
1980-03-24 02:10:10,1,-3.66667,4.73333,4.63333,0.282843,1,1,34881.0,35170.2,1693,0.91577744,-2.8731194,206.65503,275.74097,5.74145,329.193,8.76866,43.5619,23.9967,24.096
1980-03-24 02:12:52,1,-3.03333,5.46667,4.26667,0.33665,1,1,48027.3,37513.6,1693,0.91577083,-2.8732491,206.63135,275.74072,5.76093,330.788,6.86105,40.4774,28.158,24.8858
1980-03-24 02:15:34,1,-3.56667,5.06667,4.46667,0.594418,1,1,39017.4,34926.1,1693,0.91576087,-2.8734436,206.60376,275.74048,6.10905,327.146,8.7426,39.9309,25.3797,24.0123
1980-03-24 02:18:16,1,-3.1,5.3,4.0,0.0,1,1,47436.4,34984.3,1693,0.91575092,-2.8736372,206.57983,275.73999,5.71528,328.122,9.08832,39.4458,27.9843,24.0323
1980-03-24 02:20:58,1,-2.96667,5.06667,4.53333,0.270801,1,1,40558.9,34337.7,1693,0.91574425,-2.8737669,206.55615,275.73975,5.79975,329.448,10.1963,40.2742,25.8762,23.8091
1980-03-24 02:23:40,1,-3.225,5.325,4.025,0.845946,1,1,46639.0,41569.1,1693,0.91573429,-2.8739605,206.52832,275.73926,6.16766,328.307,12.0227,34.5063,27.748,26.1965
1980-03-24 02:26:22,1,-4.6,0.85,6.15,0.681909,1,1,43874.8,41837.8,1693,0.91572434,-2.874155,206.50464,275.73901,5.50104,314.4,-16.969,54.9562,26.9132,26.281
1980-03-24 02:29:04,1,-4.16667,3.06667,5.7,0.50111,1,1,34497.1,39786.2,1693,0.91571438,-2.8743496,206.48071,275.73853,5.47965,323.912,5.87496,42.2389,23.8643,25.6285
1980-03-24 02:31:46,1,-2.56667,5.23333,5.06667,0.282843,1,1,36812.4,38079.2,1693,0.91570777,-2.8744783,206.45313,275.73828,6.12131,333.484,11.0411,44.4709,24.6521,25.0728
1980-03-24 02:34:28,1,-4.66667,2.4,6.03333,0.194365,1,1,55827.2,37737.8,1693,0.91569781,-2.8746729,206.4292,275.73779,5.48391,318.792,-5.44339,50.8989,30.3585,24.9601
1980-03-24 02:37:10,1,-4.06667,3.2,5.53333,0.746845,1,1,52807.2,35733.1,1693,0.91568786,-2.8748674,206.40552,275.73755,5.37956,322.808,-2.70695,53.8297,29.526,24.2881
1980-03-24 02:39:52,1,-3.43333,4.83333,4.6,0.459468,1,1,50656.9,36143.7,1693,0.91568124,-2.8749962,206.37793,275.7373,6.25313,327.431,13.3808,36.1661,28.9186,24.4272
1980-03-24 02:42:34,1,-3.7,4.0,5.6,0.408248,1,1,46663.2,40809.1,1693,0.91567129,-2.8751907,206.354,275.73682,5.4645,322.903,3.34478,49.8459,27.7552,25.9559
1980-03-24 02:45:16,1,-1.75,4.55,6.175,0.621993,1,1,31730.5,27984.9,1693,0.91566133,-2.8753853,206.33032,275.73657,5.30249,341.277,3.55275,48.1633,22.8874,21.4941
1980-03-24 02:47:58,1,-0.6,4.5,6.56667,0.329983,1,1,51441.9,33791.3,1693,0.91565466,-2.875514,206.30249,275.73608,6.10998,345.752,0.359107,55.1702,29.1418,23.6189
1980-03-24 02:50:40,1,-2.26667,4.03333,6.53333,0.282843,1,1,51292.4,40035.1,1693,0.91564471,-2.8757086,206.27881,275.73584,5.9414,331.667,3.21553,49.4366,29.0994,25.7086
1980-03-24 02:53:22,1,-3.76667,3.66667,6.03333,0.270801,1,1,44302.0,37369.9,1693,0.91563475,-2.8759022,206.25488,275.73535,5.48487,324.257,1.80088,47.9323,27.0439,24.8381
1980-03-24 02:56:04,1,-2.66667,3.56667,6.46667,0.447214,1,1,48363.9,37430.2,1693,0.9156248,-2.8760967,206.22729,275.73511,6.43793,332.696,0.721774,50.9641,28.2565,24.8582
1980-03-24 02:58:46,1,-1.96667,3.63333,6.4,0.194365,1,1,52843.8,36597.6,1693,0.91561818,-2.8762264,206.20361,275.73486,5.88174,335.395,0.928638,52.1242,29.5362,24.5801
1980-03-24 03:01:28,1,-1.76667,4.4,6.0,0.518545,1,1,50278.8,35792.6,1693,0.91560823,-2.87642,206.17969,275.73438,6.02859,337.057,8.40865,43.0317,28.8105,24.3083
1980-03-24 03:04:10,1,-2.3,4.8,5.6,8.88178e-16,1,1,36210.1,31657.2,1693,0.91559821,-2.8766146,206.15186,275.73389,5.83434,328.941,9.19446,43.7864,24.4496,22.861
1980-03-24 03:06:52,1,-2.725,5.775,3.2,0.385681,1,1,40500.8,40452.6,1693,0.91561538,-2.7281165,206.04712,275.65259,6.0292,328.248,20.9837,25.932,25.8577,25.8423
1980-03-24 03:07:10,1,-2.8,5.83333,3.46667,0.24037,1,1,39380.4,36930.0,1693,0.91558826,-2.8768082,206.12427,275.73364,5.41949,332.894,18.6271,31.6728,25.4975,24.6915
1980-03-24 03:09:34,1,-3.1,5.73333,2.53333,0.253859,1,1,33815.7,38609.5,1693,0.91560644,-2.7282901,206.02332,275.65222,5.96346,326.901,17.4017,20.3472,23.6275,25.2467
1980-03-24 03:12:16,1,-3.2,5.36667,2.96667,0.253859,1,1,62488.9,26787.3,1693,0.91557163,-2.8771324,206.07666,275.73291,4.63433,326.685,12.3988,32.8672,32.1188,21.0292
1980-03-24 03:17:58,-1,nan,nan,nan,nan,1,3,nan,nan,1693,0.915555,-2.8774557,206.02539,275.73242,nan,328.04,5.74643,46.2072,nan,nan
1980-03-24 03:28:46,-1,nan,nan,nan,nan,1,3,nan,nan,1693,0.91551846,-2.8781672,205.92627,275.73096,nan,336.503,23.9736,29.2506,nan,nan
1980-03-24 03:39:34,-1,nan,nan,nan,nan,1,3,nan,nan,1693,0.91548193,-2.8788795,205.82324,275.72949,nan,355.187,15.4131,-2.23347,nan,nan
1980-03-24 03:50:22,-1,nan,nan,nan,nan,1,3,nan,nan,1693,0.91544533,-2.879591,205.72437,275.72827,nan,326.844,10.092,43.3853,nan,nan
1980-03-24 04:01:10,-1,nan,nan,nan,nan,1,3,nan,nan,1693,0.91540879,-2.8803024,205.62524,275.72681,nan,322.72,7.95712,47.9481,nan,nan
1980-03-24 04:11:58,-1,nan,nan,nan,nan,1,3,nan,nan,1693,0.91537547,-2.88095,205.52246,275.72559,nan,327.91,20.9794,35.6677,nan,nan
1980-03-24 04:22:46,-1,nan,nan,nan,nan,1,3,nan,nan,1693,0.91533887,-2.8816624,205.42334,275.72412,nan,317.268,19.5661,21.4604,nan,nan
1980-03-24 04:33:34,-1,nan,nan,nan,nan,1,3,nan,nan,1693,0.91530228,-2.8823748,205.32422,275.72266,nan,338.122,16.0854,-1.37232,nan,nan
1980-03-24 04:44:22,-1,nan,nan,nan,nan,1,3,nan,nan,1693,0.91526568,-2.8830862,205.22119,275.72119,nan,316.463,-28.9054,-3.30183,nan,nan
1980-03-24 04:55:10,-1,nan,nan,nan,nan,1,3,nan,nan,1693,0.91522908,-2.8837986,205.12207,275.71973,nan,340.47,15.6622,40.7284,nan,nan
1980-03-24 05:05:58,-1,nan,nan,nan,nan,1,3,nan,nan,1693,0.91519576,-2.8844461,205.02319,275.71851,nan,348.275,6.84122,47.396,nan,nan
1980-03-24 05:16:46,-1,nan,nan,nan,nan,1,3,nan,nan,1693,0.91515911,-2.8851585,204.92017,275.71704,nan,343.44,7.76292,52.4977,nan,nan
1980-03-24 05:27:34,-1,nan,nan,nan,nan,1,3,nan,nan,1693,0.91512239,-2.88587,204.82129,275.71582,nan,346.161,8.6043,44.6652,nan,nan
1980-03-24 05:38:22,-1,nan,nan,nan,nan,1,3,nan,nan,1693,0.91508573,-2.8865824,204.72217,275.71436,nan,343.609,10.3545,49.225,nan,nan
1980-03-24 05:49:10,-1,nan,nan,nan,nan,1,3,nan,nan,1693,0.91504908,-2.8872948,204.61914,275.71289,nan,340.087,11.9905,36.3985,nan,nan
1980-03-24 05:59:58,-1,nan,nan,nan,nan,1,3,nan,nan,1693,0.9150157,-2.8879423,204.52026,275.71167,nan,342.572,12.4677,41.3058,nan,nan
1980-03-24 06:10:46,-1,nan,nan,nan,nan,1,3,nan,nan,1693,0.91497904,-2.8886547,204.42114,275.71021,nan,340.738,9.74931,39.7152,nan,nan
1980-03-24 06:21:34,-1,nan,nan,nan,nan,1,3,nan,nan,1693,0.91494232,-2.8893661,204.31836,275.70898,nan,344.936,18.3224,30.863,nan,nan
1980-03-24 06:32:22,-1,nan,nan,nan,nan,1,3,nan,nan,1693,0.91490561,-2.8900785,204.21924,275.70752,nan,327.038,14.6776,35.1863,nan,nan
1980-03-24 06:43:10,-1,nan,nan,nan,nan,1,3,nan,nan,1693,0.91486889,-2.8907909,204.12012,275.70605,nan,335.397,13.5391,43.7505,nan,nan
1980-03-24 06:53:58,-1,nan,nan,nan,nan,1,3,nan,nan,1693,0.91483551,-2.8914385,204.01733,275.70483,nan,342.008,6.2569,38.6177,nan,nan
1980-03-24 07:04:46,-1,nan,nan,nan,nan,1,3,nan,nan,1693,0.91479874,-2.8921509,203.91821,275.70337,nan,337.261,12.5537,38.7461,nan,nan
1980-03-24 07:15:34,-1,nan,nan,nan,nan,1,3,nan,nan,1693,0.91476196,-2.8928633,203.81934,275.70215,nan,331.981,15.1831,0.1105,nan,nan
1980-03-24 07:26:22,-1,nan,nan,nan,nan,1,3,nan,nan,1693,0.91472518,-2.8935757,203.71631,275.70068,nan,329.99,21.8989,12.2669,nan,nan
1980-03-24 07:37:10,-1,nan,nan,nan,nan,1,3,nan,nan,1693,0.91468841,-2.8942881,203.61719,275.69922,nan,326.987,24.3523,18.7354,nan,nan
1980-03-24 08:24:43,-1,nan,nan,nan,nan,1,4,nan,nan,1693,0.91453117,-2.8973331,203.17383,275.69336,nan,nan,nan,nan,nan,nan
1980-03-24 08:26:04,1,1.0,5.4,-3.5,0.0,1,1,43441.6,27039.3,1693,0.9145245,-2.8974628,203.16187,275.69312,5.94059,336.747,17.3525,-4.75988,26.78,21.1279
1980-03-24 08:27:25,1,-0.442857,6.54286,-1.41429,0.667924,1,1,36649.8,27671.0,1693,0.91452116,-2.8975277,203.15015,275.69312,5.94072,335.635,25.0345,2.10829,24.5977,21.3732
1980-03-24 08:28:46,1,0.128571,5.97143,-2.28571,0.306394,1,1,35179.4,23430.5,1693,0.91451776,-2.8975925,203.13818,275.69287,6.18844,343.846,20.4404,-7.30315,24.0992,19.6675
1980-03-24 08:29:42,1,-0.1,6.5,-1.75,0.287228,1,1,39746.8,27177.6,1693,0.91451442,-2.8976574,203.13037,275.69287,6.07256,339.175,24.2506,0.437391,25.6159,21.1818
1980-03-24 08:31:03,1,-0.342857,6.2,-1.97143,0.348759,1,1,47058.4,24457.6,1693,0.91450775,-2.8977861,203.11841,275.69263,6.06285,344.1,19.9756,-4.42578,27.8725,20.0939
1980-03-24 08:32:24,1,-0.114286,6.44286,-1.92857,0.311677,1,1,52523.2,27408.0,1693,0.91450441,-2.897851,203.10254,275.69238,5.64876,348.629,17.5521,-3.45828,29.4465,21.2714
1980-03-24 08:33:45,1,-0.8,6.61429,-2.14286,0.274048,1,1,40151.9,21853.3,1693,0.91450101,-2.8979158,203.09082,275.69238,5.74405,346.22,19.2139,-3.86963,25.7461,18.994
1980-03-24 08:35:06,1,-0.35,6.3,-1.86667,0.38478,1,1,47560.3,26271.7,1693,0.91449434,-2.8980455,203.07861,275.69189,5.84258,346.517,16.9763,-0.333796,28.0208,20.8258
1980-03-24 08:36:27,1,0.9,6.68333,-0.466667,0.428499,1,1,39843.3,21376.7,1693,0.914491,-2.8981104,203.06689,275.69189,5.80212,349.45,21.1998,12.5906,25.6469,18.7857
1980-03-24 08:37:48,1,-1.81667,6.0,-1.61667,0.479004,1,1,24178.8,23838.8,1693,0.91448766,-2.8981752,203.05493,275.69165,4.75604,336.264,18.2579,1.71556,19.9791,19.8381
1980-03-24 08:39:09,1,-1.51667,5.68333,-2.56667,0.380789,1,1,40907.1,27060.6,1693,0.91448092,-2.8983049,203.04297,275.69141,5.59042,335.393,16.6385,-3.56745,25.9871,21.1362
1980-03-24 08:40:30,1,-0.985714,5.9,-2.34286,0.566407,1,1,38028.6,26387.7,1693,0.91447759,-2.8983698,203.02734,275.69141,5.45024,331.019,17.7186,-0.851086,25.0561,20.8717
1980-03-24 08:41:51,1,-1.65714,5.87143,-2.55714,0.274791,1,1,41374.6,26152.9,1693,0.91447425,-2.8984346,203.01538,275.69116,5.42814,335.671,15.3892,-3.38397,26.1351,20.7787
1980-03-24 08:43:12,1,-1.85714,5.77143,-2.67143,0.371429,1,1,24126.6,22490.5,1693,0.91446757,-2.8985643,203.00342,275.69092,5.28191,334.498,13.0579,-5.38714,19.9575,19.2689
1980-03-24 08:44:33,1,-3.46667,5.66667,-1.3,0.312694,1,1,34106.7,26463.4,1693,0.91446418,-2.8986292,202.9917,275.69092,6.45904,322.109,16.7618,1.5237,23.7289,20.9017
1980-03-24 08:45:54,1,-3.28333,5.66667,-1.93333,0.236291,1,1,27664.0,29219.1,1693,0.91446084,-2.898694,202.97974,275.69067,5.85187,323.818,17.1877,-0.446152,21.3705,21.963
1980-03-24 08:47:15,1,-3.4,5.1,-2.35,0.229129,1,1,36951.1,24654.2,1693,0.91445416,-2.8988228,202.96777,275.69043,5.91786,323.323,14.3468,-5.06445,24.6985,20.1745
1980-03-24 08:48:36,1,-3.21667,5.7,-2.16667,0.565931,1,1,24658.5,28053.1,1693,0.91445082,-2.8988876,202.95215,275.69043,5.19465,325.072,14.0376,-4.58782,20.1763,21.5203
1980-03-24 08:49:57,1,-3.46667,5.8,-3.0,0.334996,1,1,31393.3,25334.2,1693,0.91444749,-2.8989525,202.94019,275.69019,4.43979,329.48,11.2641,0.869984,22.7655,20.4509
1980-03-24 08:51:18,1,-3.45,5.58333,-3.06667,0.330824,1,1,24323.2,25428.7,1693,0.91444075,-2.8990822,202.92822,275.68994,4.61787,327.922,11.8456,2.08927,20.0386,20.489
1980-03-24 08:52:39,1,-3.55,5.76667,-2.98333,0.359784,1,1,22171.5,29112.2,1693,0.91443741,-2.899147,202.9165,275.68994,3.87198,328.898,7.57492,-2.00638,19.1318,21.9228
1980-03-24 08:54:00,1,-3.76667,5.33333,-2.96667,0.251661,1,1,28662.5,31008.1,1693,0.91443074,-2.8992767,202.90454,275.6897,5.42123,324.517,15.2938,-6.08468,21.7528,22.6254
1980-03-24 08:55:21,1,-4.36667,4.75,-2.73333,0.469338,1,1,31003.8,24269.3,1693,0.91442734,-2.8993416,202.89258,275.68945,4.75142,320.652,8.14691,-4.7598,22.6238,20.0164
1980-03-24 08:56:42,1,-3.61667,5.66667,-2.7,0.332081,1,1,24776.1,32793.9,1693,0.914424,-2.8994064,202.87695,275.68945,4.21098,326.348,12.6396,-0.0607639,20.2243,23.2677
1980-03-24 08:58:03,1,-3.88333,6.05,-2.26667,0.390868,1,1,45393.0,27711.4,1693,0.91441733,-2.8995361,202.86499,275.68921,4.2344,322.034,13.703,3.58017,27.3749,21.3888
1980-03-24 08:59:24,1,-3.2,5.78333,-2.78333,0.442844,1,1,33883.3,28792.0,1693,0.91441399,-2.899601,202.85303,275.68896,5.33614,327.194,15.5336,-3.61896,23.6511,21.8019
1980-03-24 09:00:45,1,-3.75,5.01667,-2.83333,0.377859,1,1,27215.7,26952.1,1693,0.91441065,-2.8996658,202.84131,275.68896,4.8391,321.246,9.07324,-5.99177,21.1967,21.0938
1980-03-24 09:02:06,1,-4.6,5.56667,-2.08333,0.458561,1,1,25703.3,27134.2,1693,0.91440392,-2.8997946,202.82935,275.68872,4.31246,315.477,11.8397,1.17853,20.5993,21.1649
1980-03-24 09:03:27,1,-3.81667,6.01667,-1.8,0.310018,1,1,46355.1,27716.8,1693,0.91440058,-2.8998594,202.81738,275.68848,4.75373,322.825,15.313,3.01365,27.6635,21.3909
1980-03-24 09:04:48,1,-4.01429,6.21429,-2.5,0.328882,1,1,23096.8,28854.8,1693,0.91439724,-2.8999243,202.80151,275.68823,4.32457,323.156,10.6334,2.18798,19.5269,21.8257
1980-03-24 09:06:09,1,-4.01429,5.97143,-2.3,0.178429,1,1,30314.3,22557.0,1693,0.9143905,-2.900054,202.78955,275.68799,4.22436,323.332,8.78698,6.20224,22.3708,19.2974
1980-03-24 09:07:30,1,-3.38333,6.66667,-1.46667,0.482183,1,1,19886.2,29252.7,1693,0.91438717,-2.9001188,202.77783,275.68799,5.16827,329.395,18.0153,6.64562,18.119,21.9756
1980-03-24 09:08:51,1,-4.0,5.78333,-1.76667,0.391933,1,1,41868.6,27837.0,1693,0.91438383,-2.9001837,202.76587,275.68774,4.8789,321.244,11.9849,1.50793,26.2907,21.4373
1980-03-24 09:10:12,1,-3.48333,6.16667,-1.46667,0.292973,1,1,29334.6,28893.6,1693,0.91437709,-2.9003134,202.75391,275.6875,5.61118,328.524,15.9016,2.0765,22.0063,21.8403
1980-03-24 09:11:33,1,-3.45,6.78333,0.7,0.753142,1,1,34205.7,30658.3,1693,0.91437376,-2.9003782,202.74219,275.6875,6.45777,331.724,22.5181,15.2176,23.7633,22.4974
1980-03-24 09:12:54,1,-2.91667,6.45,-1.05,1.16178,1,1,28001.7,25917.2,1693,0.91437042,-2.9004431,202.72632,275.68726,5.50763,323.538,19.7578,8.70611,21.5006,20.6848
1980-03-24 09:14:15,1,-3.75,6.23333,-0.683333,0.442844,1,1,35720.0,23227.8,1693,0.91436368,-2.9005728,202.71436,275.68701,5.79085,319.907,17.8579,2.86709,24.2836,19.5822
1980-03-24 09:15:36,1,-2.48333,6.36667,-1.4,0.462181,1,1,18827.8,21016.4,1693,0.91436034,-2.9006376,202.70264,275.68701,6.67368,333.305,17.0238,-8.56814,17.6302,18.6268
1980-03-24 09:16:57,1,-2.16667,5.63333,-4.23333,0.238048,1,1,16288.1,21275.2,1693,0.91435701,-2.9007015,202.69067,275.68677,3.78113,330.08,5.96313,1.48217,16.3981,18.7411
1980-03-24 09:18:18,1,-2.21429,5.72857,-3.3,0.245781,1,1,26834.0,23906.9,1693,0.91435027,-2.9008312,202.67871,275.68652,5.00566,330.574,17.3213,-5.41937,21.0475,19.8664
1980-03-24 09:19:39,1,-2.26667,5.75,-3.63333,0.252212,1,1,43510.9,29095.4,1693,0.91434693,-2.9008961,202.66699,275.68652,4.94048,330.612,17.1239,-3.65848,26.8014,21.9164
1980-03-24 09:21:00,1,-2.21667,5.36667,-3.6,0.443784,1,1,26892.3,20785.8,1693,0.9143402,-2.9010258,202.65112,275.68628,4.476,331.122,15.1321,-9.22368,21.0704,18.5243
1980-03-24 09:22:21,1,-2.36667,5.63333,-3.93333,0.321455,1,1,19637.5,20893.0,1693,0.91433686,-2.9010906,202.63916,275.68604,3.93919,333.176,6.3861,1.61131,18.0053,18.572
1980-03-24 09:23:42,1,-1.96667,5.33333,-4.5,0.194365,1,1,26552.4,17661.9,1693,0.91433352,-2.9011555,202.62744,275.68604,3.49797,333.23,8.42598,1.66812,20.9368,17.0756
1980-03-24 09:25:03,1,-2.43333,5.76667,-3.86667,0.341565,1,1,24509.4,20135.8,1693,0.91432679,-2.9012852,202.61548,275.68579,3.86255,330.696,7.17764,6.13039,20.1152,18.2324
1980-03-24 09:26:24,1,-2.85,4.66667,-4.8,0.254406,1,1,28655.1,20184.4,1693,0.91432345,-2.90135,202.60352,275.68555,3.75878,328.321,2.01837,-0.236461,21.75,18.2543
1980-03-24 09:27:45,1,-2.25714,4.3,-5.14286,0.296235,1,1,23889.2,25791.8,1693,0.91432011,-2.9014149,202.5918,275.68555,3.83124,331.325,-0.274186,-2.21669,19.859,20.6347
1980-03-24 09:29:06,1,-2.88571,5.78571,-1.95714,0.373073,1,1,30249.4,28008.7,1693,0.91431338,-2.9015446,202.57593,275.6853,5.48122,332.281,21.3954,2.48306,22.3469,21.5033
1980-03-24 09:30:27,1,-2.71667,6.31667,-1.61667,0.301386,1,1,43188.0,28309.5,1693,0.91431004,-2.9016094,202.56396,275.68506,5.3779,327.655,20.8944,5.01217,26.7017,21.6184
1980-03-24 09:31:48,1,-2.38333,6.83333,0.05,0.544161,1,1,29283.5,27773.3,1693,0.9143067,-2.9016733,202.55225,275.68506,5.71653,325.26,22.3131,10.9295,21.9872,21.4127
1980-03-24 09:33:09,1,-1.13333,6.66667,-0.566667,0.503322,1,1,46866.9,30156.1,1693,0.91429996,-2.901803,202.54028,275.68481,5.41897,334.868,22.4525,3.82073,27.8158,22.3123
1980-03-24 09:34:30,1,-1.6,7.03333,0.766667,0.380058,1,1,36447.2,24375.9,1693,0.91429663,-2.9018679,202.52832,275.68457,5.3784,329.665,27.2138,18.7582,24.5296,20.0604
1980-03-24 09:35:51,1,-0.371429,7.11429,1.15714,0.329502,1,1,56679.2,29310.9,1693,0.91429329,-2.9019327,202.51636,275.68433,6.12645,336.103,28.9454,14.4452,30.5893,21.9974
1980-03-24 09:37:12,1,-3.04286,5.92857,-1.54286,0.209956,1,1,20545.8,23844.7,1693,0.91428655,-2.9020624,202.50049,275.68408,6.47958,323.601,16.0994,-2.2525,18.417,19.8405
1980-03-24 09:38:33,1,-2.15,6.85,-0.1,0.248328,1,1,34921.2,24091.1,1693,0.91428322,-2.9021273,202.48877,275.68408,6.55469,328.688,20.7197,6.29291,24.0106,19.9428
1980-03-24 09:39:54,1,-2.31667,6.78333,-0.233333,0.376386,1,1,20808.5,24440.4,1693,0.91427988,-2.9021921,202.47681,275.68384,6.05718,326.521,20.2304,5.94429,18.5344,20.0869
1980-03-24 09:41:15,1,-2.62857,6.78571,0.128571,0.287139,1,1,38523.8,22416.5,1693,0.91427314,-2.9023218,202.46484,275.68359,5.79715,323.795,21.2248,10.375,25.2187,19.2372
1980-03-24 09:42:36,1,-3.0,6.56667,-0.466667,0.700793,1,1,25419.4,27140.5,1693,0.9142698,-2.9023867,202.45313,275.68359,6.05711,323.552,19.9894,11.3424,20.4852,21.1674
1980-03-24 09:43:57,1,-1.96667,7.01667,0.883333,0.644205,1,1,42182.9,26963.1,1693,0.91426647,-2.9024515,202.44116,275.68335,6.13611,330.543,20.8766,13.0996,26.3892,21.0981
1980-03-24 09:45:18,1,-1.73333,7.2,1.03333,0.542627,1,1,34267.3,22702.0,1693,0.91425973,-2.9025812,202.42529,275.68311,6.18885,333.077,25.5764,16.0975,23.7847,19.3593
1980-03-24 09:46:39,1,-2.22857,6.97143,1.78571,0.38492,1,1,17945.6,19747.6,1693,0.91425639,-2.9026451,202.41357,275.68311,6.35786,325.989,27.7433,17.3557,17.2122,18.0557
1980-03-24 09:48:00,1,-2.23333,7.0,2.63333,0.278887,1,1,35156.8,27163.3,1693,0.91424972,-2.9027748,202.40161,275.68286,6.13378,327.662,23.1322,21.299,24.0914,21.1762
1980-03-24 09:49:21,1,-2.2,6.76667,2.83333,0.323179,1,1,21940.4,21949.4,1693,0.91424632,-2.9028397,202.38965,275.68262,6.06203,326.563,28.0275,19.059,19.0318,19.0357
1980-03-24 09:50:42,1,-1.86667,6.91667,2.1,0.311359,1,1,32766.8,26034.9,1693,0.91424298,-2.9029045,202.37793,275.68262,5.80993,327.255,24.4333,19.8088,23.2581,20.7317